Volver al catálogo

STARLINK-3827

ActivoComunicacionesVLEO
NORAD 52370·PAYLOAD·🇺🇸 United States

Lanzado Apr 29, 2022 desde Cape Canaveral Space Force Station

Loading…

Próximos Pases (próximas 24 horas)

TLE

ActualizadoSource: CelesTrak SupGP

Época: Sep 14, 2026, 21:22 UTC

1 52370C 22045AR  26257.89076389  .00050538  00000+0  15338-2 0  2571
2 52370  53.1588  51.8286 0001170  79.9249 101.4600 15.33517380    17

Sigue STARLINK-3827 en tiempo real con AllMySat

Download on the App Store